Time,TemperatureF,DewpointF,PressureIn,WindDirection,WindDirectionDegrees,WindSpeedMPH,WindSpeedGustMPH,Humidity,HourlyPrecipIn,Conditions,Clouds,dailyrainin,SoftwareType,DateUTC
2013-09-16 00:05:00,71.3,60.0,29.83,ESE,116,5.0,12.0,67,0.00,,,0.00,weatherlink.com 1.10,2013-09-16 05:05:00,
2013-09-16 00:20:00,71.1,60.0,29.83,ESE,111,8.0,13.0,67,0.00,,,0.00,weatherlink.com 1.10,2013-09-16 05:20:00,
2013-09-16 00:35:00,70.9,58.0,29.83,ESE,104,9.0,12.0,65,0.00,,,0.00,weatherlink.com 1.10,2013-09-16 05:35:00,
2013-09-16 00:50:00,70.4,58.0,29.84,ESE,118,2.0,12.0,64,0.00,,,0.00,weatherlink.com 1.10,2013-09-16 05:50:00,
2013-09-16 01:05:00,69.8,57.0,29.83,SE,134,2.0,4.0,63,0.00,,,0.00,weatherlink.com 1.10,2013-09-16 06:05:00,
2013-09-16 01:20:00,69.4,56.0,29.83,SE,146,0.0,7.0,62,0.00,,,0.00,weatherlink.com 1.10,2013-09-16 06:20:00,
2013-09-16 01:35:00,68.9,55.0,29.83,NNE,26,0.0,2.0,61,0.00,,,0.00,weatherlink.com 1.10,2013-09-16 06:35:00,
2013-09-16 01:50:00,68.7,54.0,29.83,East,84,0.0,2.0,60,0.00,,,0.00,weatherlink.com 1.10,2013-09-16 06:50:00,
2013-09-16 02:05:00,68.3,54.0,29.83,ESE,121,5.0,8.0,60,0.00,,,0.00,weatherlink.com 1.10,2013-09-16 07:05:00,
2013-09-16 02:20:00,67.9,54.0,29.83,ESE,117,3.0,7.0,62,0.00,,,0.00,weatherlink.com 1.10,2013-09-16 07:20:00,
2013-09-16 02:35:00,67.6,55.0,29.83,ESE,117,5.0,7.0,64,0.00,,,0.00,weatherlink.com 1.10,2013-09-16 07:35:00,
2013-09-16 02:50:00,67.7,55.0,29.83,ESE,108,4.0,6.0,65,0.00,,,0.00,weatherlink.com 1.10,2013-09-16 07:50:00,
2013-09-16 03:05:00,67.2,56.0,29.84,ESE,106,2.0,5.0,67,0.00,,,0.00,weatherlink.com 1.10,2013-09-16 08:05:00,
2013-09-16 03:20:00,67.2,56.0,29.84,ESE,114,1.0,7.0,68,0.00,,,0.00,weatherlink.com 1.10,2013-09-16 08:20:00,
2013-09-16 03:35:00,67.2,56.0,29.84,East,96,2.0,4.0,67,0.00,,,0.00,weatherlink.com 1.10,2013-09-16 08:35:00,
2013-09-16 03:50:00,67.1,56.0,29.83,ESE,105,0.0,5.0,67,0.00,,,0.00,weatherlink.com 1.10,2013-09-16 08:50:00,
2013-09-16 04:05:00,67.3,55.0,29.83,East,101,1.0,6.0,66,0.00,,,0.00,weatherlink.com 1.10,2013-09-16 09:05:00,
2013-09-16 04:20:00,66.8,55.0,29.83,ESE,105,2.0,4.0,67,0.00,,,0.00,weatherlink.com 1.10,2013-09-16 09:20:00,
2013-09-16 04:35:00,66.6,56.0,29.83,ESE,109,0.0,4.0,68,0.00,,,0.00,weatherlink.com 1.10,2013-09-16 09:35:00,
2013-09-16 04:50:00,64.7,55.0,29.83,ESE,109,0.0,0.0,71,0.00,,,0.00,weatherlink.com 1.10,2013-09-16 09:50:00,
2013-09-16 05:05:00,63.4,55.0,29.82,ESE,109,0.0,0.0,73,0.00,,,0.00,weatherlink.com 1.10,2013-09-16 10:05:00,
2013-09-16 05:20:00,63.2,55.0,29.82,ESE,109,0.0,0.0,74,0.00,,,0.00,weatherlink.com 1.10,2013-09-16 10:20:00,
2013-09-16 05:35:00,64.3,56.0,29.82,ESE,109,2.0,2.0,74,0.00,,,0.00,weatherlink.com 1.10,2013-09-16 10:35:00,
2013-09-16 05:50:00,64.5,56.0,29.83,ESE,111,0.0,3.0,75,0.00,,,0.00,weatherlink.com 1.10,2013-09-16 10:50:00,
2013-09-16 06:05:00,64.5,56.0,29.82,ESE,111,0.0,2.0,74,0.00,,,0.00,weatherlink.com 1.10,2013-09-16 11:05:00,
2013-09-16 06:20:00,63.4,56.0,29.83,ESE,111,0.0,0.0,76,0.00,,,0.00,weatherlink.com 1.10,2013-09-16 11:20:00,
2013-09-16 06:35:00,65.0,57.0,29.83,ESE,111,0.0,0.0,74,0.00,,,0.00,weatherlink.com 1.10,2013-09-16 11:35:00,
2013-09-16 06:50:00,65.2,57.0,29.84,ESE,111,0.0,0.0,74,0.00,,,0.00,weatherlink.com 1.10,2013-09-16 11:50:00,
2013-09-16 07:05:00,65.4,57.0,29.84,ESE,109,0.0,0.0,75,0.00,,,0.00,weatherlink.com 1.10,2013-09-16 12:05:00,
2013-09-16 07:20:00,65.6,58.0,29.84,ESE,109,0.0,1.0,77,0.00,,,0.00,weatherlink.com 1.10,2013-09-16 12:20:00,
2013-09-16 07:35:00,65.5,58.0,29.85,ESE,109,0.0,0.0,77,0.00,,,0.00,weatherlink.com 1.10,2013-09-16 12:35:00,
2013-09-16 07:50:00,66.1,59.0,29.86,SSE,155,0.0,5.0,77,0.00,,,0.00,weatherlink.com 1.10,2013-09-16 12:50:00,
2013-09-16 08:05:00,66.3,59.0,29.86,ESE,117,2.0,5.0,78,0.00,,,0.00,weatherlink.com 1.10,2013-09-16 13:05:00,
2013-09-16 08:20:00,66.5,60.0,29.87,East,93,5.0,8.0,79,0.00,,,0.00,weatherlink.com 1.10,2013-09-16 13:20:00,
2013-09-16 08:36:00,66.7,60.0,29.87,ESE,111,10.0,12.0,80,0.00,,,0.00,weatherlink.com 1.10,2013-09-16 13:36:00,
2013-09-16 08:51:00,66.4,61.0,29.88,ESE,119,10.0,13.0,82,0.00,,,0.00,weatherlink.com 1.10,2013-09-16 13:51:00,
2013-09-16 09:06:00,66.4,61.0,29.88,SE,126,4.0,14.0,82,0.00,,,0.00,weatherlink.com 1.10,2013-09-16 14:06:00,
2013-09-16 09:21:00,67.2,61.0,29.88,ESE,123,5.0,8.0,81,0.00,,,0.00,weatherlink.com 1.10,2013-09-16 14:21:00,
2013-09-16 09:36:00,68.0,61.0,29.88,ESE,119,0.0,8.0,78,0.00,,,0.00,weatherlink.com 1.10,2013-09-16 14:36:00,
2013-09-16 09:51:00,68.8,61.0,29.88,ESE,115,0.0,7.0,76,0.00,,,0.00,weatherlink.com 1.10,2013-09-16 14:51:00,
2013-09-16 10:06:00,69.4,60.0,29.87,ESE,114,7.0,11.0,73,0.00,,,0.00,weatherlink.com 1.10,2013-09-16 15:06:00,
2013-09-16 10:21:00,69.8,60.0,29.88,ESE,115,3.0,12.0,72,0.00,,,0.00,weatherlink.com 1.10,2013-09-16 15:21:00,
2013-09-16 10:36:00,71.1,60.0,29.88,ESE,113,3.0,9.0,69,0.00,,,0.00,weatherlink.com 1.10,2013-09-16 15:36:00,
2013-09-16 10:52:00,71.4,60.0,29.88,ESE,105,3.0,5.0,67,0.00,,,0.00,weatherlink.com 1.10,2013-09-16 15:52:00,